Theta_e
309 308 308 306 306 305 307 307 306 306 306 305 304 303 301 300 297 295 294 296 297 300 303 300 303 306 306 306 308 309 309 312 313 313 315 318 327 326 322 317 316 317 316 317 317 316 315 315 317 322 325 325 325 325 323 322 321 319 320 323 326 325 321 317 316 319 321 325 324 320 319 319 319 319
308 308 307 305 305 305 305 305 305 305 305 303 303 302 302 301 298 297 294 295 298 298 301 302 301 303 304 306 306 307 306 312 314 313 312 313 320 324 320 318 315 314 314 315 313 313 314 315 319 323 325 324 322 321 320 320 319 319 321 325 326 323 320 316 317 318 318 320 320 319 319 318 318 318
307 306 306 305 304 304 304 304 304 304 303 301 301 300 301 300 299 297 296 293 297 300 297 300 303 302 303 305 305 306 307 310 311 310 311 312 314 316 322 319 316 315 313 311 313 316 313 312 314 318 322 323 322 320 320 320 320 322 324 321 321 321 320 318 317 320 321 323 322 322 320 319 319 320
306 304 303 303 303 303 302 302 302 301 300 300 299 299 299 298 298 298 296 294 293 298 298 299 301 302 302 303 303 304 306 308 311 308 310 312 314 314 322 322 317 316 313 312 311 314 313 311 312 314 318 321 322 320 321 320 322 323 319 317 317 317 318 317 317 321 323 323 323 323 320 319 320 320
304 304 302 302 302 302 301 300 300 299 299 299 298 299 298 297 297 297 295 293 293 296 299 299 299 301 301 301 303 303 304 304 306 309 308 310 311 313 317 326 320 316 314 312 311 310 310 311 314 316 317 321 323 322 319 318 318 317 316 315 316 316 317 318 316 318 322 323 323 322 319 318 318 319
304 304 302 301 301 302 300 299 298 298 298 297 297 297 297 296 296 297 295 294 293 292 296 297 299 299 301 299 302 301 302 303 305 305 307 309 310 312 315 322 328 318 317 314 311 310 309 309 311 313 312 314 316 318 314 313 314 315 315 311 313 315 317 318 315 316 320 321 320 319 318 317 318 318
302 302 301 300 300 301 299 298 298 298 297 297 296 296 296 296 296 297 297 295 293 293 293 296 296 297 298 298 299 301 302 303 304 304 305 306 309 310 312 315 322 317 316 312 309 309 309 309 309 309 310 311 313 314 313 312 312 312 313 309 311 313 315 315 316 316 320 321 319 318 317 317 318 318
301 300 300 299 299 299 297 297 297 297 297 296 296 295 296 296 296 296 296 296 294 293 292 294 295 297 296 298 300 301 302 301 302 303 304 305 306 308 311 318 317 315 313 313 312 310 310 309 309 309 309 310 311 312 313 312 311 311 310 310 310 311 312 312 311 312 315 319 317 317 316 318 319 320
301 300 299 299 298 298 297 296 296 296 296 296 295 295 295 295 296 296 295 295 295 294 292 293 296 297 297 298 299 300 299 299 300 301 302 303 305 306 309 309 312 313 313 314 313 310 309 309 308 308 308 309 310 310 311 311 311 310 310 310 309 310 310 311 312 313 313 314 314 317 317 317 320 322
301 300 299 299 298 297 296 296 296 296 295 295 294 294 294 295 295 294 294 295 294 294 294 294 294 296 296 296 297 298 298 298 298 299 300 302 303 303 303 305 309 313 316 319 321 315 309 308 308 308 308 308 308 310 310 310 309 309 309 309 309 308 309 309 310 311 310 312 313 315 316 315 319 321
301 300 299 299 299 297 297 296 296 295 294 294 294 294 294 295 294 294 294 294 294 294 293 294 294 294 296 296 294 297 299 298 298 297 297 298 300 301 302 302 306 309 311 311 310 313 313 312 312 309 307 307 308 309 309 309 309 309 309 308 306 306 307 307 308 310 310 311 311 312 311 310 314 319
300 300 299 299 298 298 298 297 295 294 293 293 293 294 294 294 294 294 294 294 293 293 293 292 292 294 294 295 296 297 297 296 296 298 297 295 297 299 301 302 302 304 305 306 310 312 313 312 311 308 308 308 308 308 309 310 310 309 308 306 307 307 306 306 307 308 309 310 309 308 308 308 311 313
300 299 299 299 299 300 302 299 298 297 296 294 292 293 294 294 294 294 294 293 293 292 292 292 293 293 293 294 294 294 294 293 294 296 297 296 297 298 298 300 302 302 302 304 307 312 317 318 316 314 312 312 310 310 310 312 310 309 308 306 307 307 307 307 307 308 308 309 309 307 307 308 309 309
300 299 299 301 302 301 301 298 296 295 295 296 295 294 294 294 294 294 293 293 292 292 291 291 292 291 291 292 293 293 294 295 295 294 294 293 295 296 295 297 299 302 302 303 307 309 313 314 316 316 313 314 312 312 312 315 313 309 306 306 306 306 306 306 307 307 307 307 308 307 307 307 307 308
299 298 298 299 299 300 299 297 295 294 294 294 294 295 296 297 296 294 293 293 293 292 292 292 292 291 291 292 293 292 293 294 293 293 293 292 293 292 291 291 296 302 303 301 301 303 308 309 308 312 315 315 314 313 314 310 309 308 306 306 306 306 306 306 306 306 306 306 306 306 305 306 307 308
299 298 298 298 299 298 297 296 295 295 295 294 294 294 294 294 294 294 294 293 293 293 291 291 291 291 291 291 292 292 292 292 293 293 292 292 291 291 291 292 292 298 301 300 299 299 303 306 307 307 312 317 316 315 312 308 308 307 306 306 306 305 306 305 305 305 305 305 305 305 305 305 305 306
299 298 298 297 298 298 300 298 295 294 294 295 295 295 296 296 295 293 292 293 295 294 292 291 291 291 292 291 292 293 293 294 292 292 292 292 291 292 291 292 294 296 300 299 297 296 300 303 303 305 309 316 318 316 309 308 307 306 306 306 305 305 305 305 305 305 305 305 305 305 306 306 305 306
300 298 298 297 296 296 296 295 294 293 293 293 294 294 295 295 296 295 294 294 294 294 294 293 291 293 294 293 293 295 295 293 292 291 291 292 291 291 291 293 295 297 299 297 297 296 298 302 304 304 308 315 318 318 312 306 306 306 305 305 304 304 304 304 304 304 304 304 304 304 305 305 305 305
301 299 299 297 296 296 295 295 293 293 292 292 293 294 294 294 294 295 295 295 294 295 295 294 294 294 295 295 295 295 295 294 294 294 292 293 293 293 294 295 296 297 299 299 298 294 298 303 304 306 309 315 318 318 310 305 305 305 305 304 304 304 304 304 303 303 303 303 303 303 303 304 304 304
300 299 297 296 296 296 295 295 292 292 293 292 292 292 293 294 294 294 297 295 294 295 295 295 295 295 295 295 295 295 295 295 295 295 295 294 293 293 292 291 294 295 300 301 300 298 299 304 305 306 311 316 316 317 317 306 305 305 305 304 304 304 303 303 302 302 303 303 303 303 303 302 302 302
301 300 297 298 296 294 294 294 291 291 292 292 292 292 292 293 293 293 295 295 294 294 293 293 293 293 293 293 293 293 293 294 295 294 292 291 292 291 290 291 293 294 298 301 303 302 301 304 306 307 312 315 315 316 316 314 305 305 304 304 304 304 303 303 302 302 302 302 302 302 302 302 302 302
300 298 302 298 295 294 294 292 290 291 293 292 292 292 291 292 292 292 294 295 295 295 294 294 294 293 293 293 294 294 294 294 295 293 290 292 292 290 291 290 292 294 296 298 303 302 302 305 308 309 313 312 314 316 316 315 311 305 304 303 303 303 303 302 301 301 302 302 302 302 302 302 302 305
298 299 299 298 295 295 294 291 291 290 292 291 291 291 291 291 291 291 292 292 292 294 294 294 295 294 295 296 295 296 294 294 296 295 294 294 292 290 290 291 292 291 293 298 302 299 301 303 307 310 310 309 312 315 315 313 313 309 309 308 306 303 302 301 300 301 302 302 302 302 302 302 303 308
296 296 296 297 292 292 291 291 291 291 290 291 291 292 292 291 290 292 291 293 293 293 293 293 294 294 294 294 294 294 294 295 296 295 295 294 293 291 291 292 292 291 293 298 302 300 301 304 304 309 312 309 305 311 315 314 313 310 310 309 307 304 302 301 301 301 301 302 302 302 302 301 304 309
295 294 295 296 295 292 292 291 291 291 291 291 292 292 293 291 292 291 291 293 295 293 293 293 293 293 293 293 293 293 293 294 295 295 294 295 295 293 292 291 292 293 295 298 299 302 300 302 303 306 309 313 308 308 311 313 312 310 309 309 308 307 305 305 303 304 301 301 301 301 301 301 303 308
294 294 295 295 295 292 292 291 291 290 290 290 293 294 291 290 290 292 293 293 293 293 293 292 292 292 292 291 291 291 292 293 295 294 294 294 294 295 295 294 292 292 294 300 298 302 301 300 302 302 304 309 306 307 307 309 310 310 309 309 309 307 306 305 305 305 305 305 304 302 302 301 303 304
294 295 295 296 295 292 291 291 290 290 290 291 293 290 289 290 290 292 293 293 292 292 291 291 290 291 291 290 290 290 290 293 294 294 294 294 294 295 296 297 297 297 299 302 304 304 303 301 303 302 301 306 306 304 305 306 305 308 307 308 308 307 307 306 305 305 305 305 305 301 300 300 302 303
294 294 294 294 291 290 291 291 290 290 291 292 290 289 289 290 292 293 292 291 292 291 290 290 290 290 291 291 290 291 292 293 293 293 293 293 294 294 294 295 298 301 302 304 305 305 305 304 305 306 308 308 307 306 305 304 302 306 306 307 307 307 306 306 306 305 304 305 305 303 303 303 305 306
295 292 291 290 291 291 291 290 291 292 292 291 290 290 290 294 293 292 291 291 291 289 289 289 290 290 291 291 292 293 294 294 294 293 292 293 293 294 294 295 297 298 299 301 302 301 302 304 306 310 310 311 309 307 307 303 304 305 305 304 304 305 305 307 307 305 304 304 304 303 303 304 305 304
291 291 291 291 291 292 293 294 293 293 293 291 291 291 293 293 292 292 291 290 289 289 289 289 289 290 291 292 292 294 294 293 292 291 290 290 291 291 291 291 293 295 297 298 301 300 300 304 309 310 309 309 308 306 306 304 301 304 302 304 302 302 304 306 306 305 303 303 303 303 305 307 306 303
293 292 293 292 291 291 291 292 292 292 292 293 293 293 293 293 292 292 291 290 289 289 289 289 290 291 292 293 293 293 292 291 292 292 290 289 289 290 290 290 289 290 293 296 298 300 298 297 298 302 305 306 306 306 306 305 303 302 302 303 302 300 302 305 304 304 304 304 303 304 305 307 305 302
292 292 292 293 295 295 295 294 293 293 293 292 292 292 293 292 292 293 293 292 290 290 290 290 291 291 291 291 292 292 292 291 292 292 290 289 289 289 289 287 287 288 290 292 294 296 297 297 295 294 292 292 294 298 305 304 303 302 301 301 300 301 303 303 303 303 304 304 303 303 305 305 302 302
291 292 293 293 293 292 290 291 292 292 292 292 292 293 292 292 292 292 291 290 289 290 290 289 290 289 290 291 292 292 291 291 291 292 290 289 288 289 289 287 287 286 287 288 290 292 295 299 296 294 293 292 291 290 294 299 301 301 301 300 300 301 302 303 303 302 303 303 302 303 302 302 302 303
289 290 289 291 290 291 290 290 289 290 290 290 290 291 290 291 291 290 290 290 289 289 289 289 289 289 289 290 291 291 291 291 291 291 289 288 288 287 287 286 287 287 287 287 288 289 291 295 298 298 296 294 293 291 289 289 294 300 300 300 300 300 300 301 302 302 303 303 302 299 299 300 301 302
288 288 289 289 290 290 291 289 289 289 289 288 288 289 290 290 289 289 290 289 289 288 288 289 289 289 289 289 290 291 290 290 291 291 290 289 288 287 287 286 286 287 287 286 286 288 289 291 294 294 293 293 292 293 293 291 288 294 299 299 299 299 299 301 301 302 302 303 302 297 296 295 296 298
288 289 289 289 289 290 289 288 289 290 289 289 289 289 288 289 289 289 289 289 289 288 288 288 288 289 289 289 289 290 290 289 290 290 289 289 288 287 287 287 286 287 287 286 286 287 288 288 290 289 287 287 286 285 286 291 291 289 295 295 298 298 299 300 300 300 299 297 297 296 293 292 293 295
289 290 291 291 291 291 289 290 290 290 291 290 290 289 289 288 289 290 290 290 289 288 288 288 288 288 289 289 289 290 290 290 289 289 289 289 288 287 286 286 286 287 286 287 287 287 287 286 287 287 286 284 283 282 284 286 289 290 291 295 294 296 297 296 294 293 293 293 292 293 292 291 291 292
289 291 292 291 292 292 291 291 290 289 291 290 290 289 290 290 290 290 291 290 289 288 288 288 288 288 289 289 289 289 290 290 290 289 289 289 288 287 286 286 286 286 286 287 287 287 287 286 285 285 285 282 281 281 281 284 285 286 289 293 291 291 293 291 290 289 290 291 290 290 291 289 289 290
294 292 292 291 292 292 291 290 289 290 291 291 290 289 289 289 289 289 289 289 289 288 288 288 288 288 288 290 289 289 290 290 290 289 289 289 289 288 287 287 286 287 286 286 287 287 287 286 285 285 284 283 282 282 283 282 282 285 287 289 291 290 289 289 287 287 287 286 286 287 288 289 289 289
295 294 293 293 292 292 292 292 291 291 290 291 290 290 290 288 289 288 288 288 288 288 288 288 288 288 288 289 289 289 290 290 289 290 289 289 289 288 288 287 287 287 286 286 286 286 286 286 285 285 285 285 285 286 286 286 286 287 286 287 289 288 288 289 287 287 287 288 288 287 286 287 287 288
295 294 294 294 293 293 292 291 292 291 291 291 291 290 290 290 289 288 288 288 288 288 287 288 288 287 288 288 289 289 289 290 290 289 289 289 289 288 288 288 288 288 286 286 286 286 286 287 288 287 288 288 287 289 287 284 282 284 284 285 287 288 288 288 287 288 288 289 289 287 287 286 286 286
296 294 295 295 293 293 292 292 292 291 291 290 290 290 290 289 288 289 288 288 288 287 288 288 288 288 288 288 289 289 289 289 289 289 289 289 289 289 288 288 288 288 287 286 286 287 289 291 289 290 289 288 287 285 283 284 283 284 285 286 286 287 288 288 288 288 287 288 288 286 286 286 286 285
295 296 295 294 294 294 293 292 291 291 290 291 290 290 288 288 288 288 288 288 287 288 288 288 288 288 288 288 289 289 288 288 289 289 289 289 289 289 289 289 288 288 288 288 289 289 289 290 290 288 288 287 286 286 284 284 285 285 285 285 286 286 287 287 287 287 287 287 287 286 286 286 286 283
296 296 295 296 294 294 293 292 291 291 291 291 289 288 287 287 287 287 287 287 287 287 287 288 288 288 287 287 288 288 288 288 289 289 289 289 289 289 289 289 289 289 289 289 289 289 289 289 289 288 287 286 286 286 285 285 284 285 285 285 286 286 286 286 287 287 287 286 287 288 288 287 286 287
296 295 295 294 293 293 292 292 292 291 291 290 288 287 286 286 287 287 287 287 287 287 287 287 288 288 288 287 287 287 288 289 289 289 289 289 290 290 289 289 289 289 288 289 288 288 289 289 289 289 288 287 287 286 286 285 285 285 285 285 285 285 285 285 285 284 284 284 286 287 286 287 286 286
Wind_Speed
5 5 6 7 7 7 6 5 6 6 6 7 7 8 9 9 11 11 13 11 12 13 12 12 12 12 12 12 13 13 12 14 17 14 13 13 11 12 14 15 16 17 19 21 21 23 24 20 23 22 23 26 27 26 25 25 23 22 22 22 24 23 19 21 21 23 24 25 23 21 20 20 19 19
5 5 4 5 5 6 6 6 7 7 9 9 10 9 9 9 10 10 12 12 9 12 12 11 13 15 15 12 12 13 14 17 17 12 14 15 14 15 17 17 17 17 18 20 21 22 23 22 25 25 25 25 24 22 25 25 24 24 23 25 24 24 20 20 22 23 24 23 21 21 20 20 19 19
5 6 5 5 5 6 6 7 7 8 10 10 9 9 9 9 10 11 11 13 8 10 13 13 14 15 16 14 14 12 12 15 18 15 13 14 20 25 16 18 18 18 18 18 19 20 22 23 23 24 26 27 24 25 26 26 25 25 25 24 24 23 22 20 23 22 24 24 22 22 21 20 21 20
6 6 6 7 6 7 7 8 9 9 9 9 8 8 8 9 9 9 10 12 14 10 12 12 15 18 17 16 15 14 12 13 18 14 14 15 19 16 12 15 18 19 18 18 18 19 20 21 23 24 26 27 26 24 26 26 27 27 25 27 26 24 23 22 22 23 24 25 23 23 23 21 21 21
5 6 6 7 8 9 8 7 7 8 8 8 8 8 8 8 8 9 11 13 15 11 9 11 12 14 16 15 14 17 15 15 13 14 14 15 14 13 12 11 12 15 18 19 18 18 20 21 22 24 25 25 26 26 25 25 26 25 26 26 27 25 24 23 22 22 24 25 24 22 23 22 21 22
5 5 6 8 9 9 9 9 9 8 8 9 8 9 9 9 9 9 10 12 13 17 12 12 11 12 13 15 15 16 17 16 15 16 14 13 14 13 12 11 10 14 19 20 19 19 20 21 22 23 23 25 26 26 25 26 27 26 27 27 27 26 25 25 24 23 23 24 24 22 23 22 22 22
6 6 6 8 9 7 8 9 8 7 8 9 9 10 9 10 10 10 10 12 15 17 15 13 14 13 13 13 16 17 15 15 15 17 15 13 13 13 15 14 10 14 16 15 16 18 19 21 21 21 23 25 26 26 25 26 27 27 27 26 27 26 26 26 26 25 25 25 24 23 22 23 22 23
6 6 6 8 8 7 7 8 7 7 8 8 9 10 10 10 11 10 10 11 13 14 16 14 15 14 14 13 14 14 15 15 15 14 15 15 14 14 13 10 11 14 21 22 19 19 20 21 21 20 22 25 25 26 27 26 27 27 27 27 27 27 27 27 26 25 24 25 25 24 22 24 24 24
7 7 7 8 7 7 7 7 7 7 9 9 10 10 10 10 10 10 11 13 13 14 16 16 13 14 13 13 14 15 15 15 15 15 15 15 15 14 13 14 14 18 19 21 18 17 19 20 20 19 22 24 24 25 26 27 28 29 28 28 28 27 26 26 26 26 25 23 25 25 23 24 25 24
6 6 7 7 7 7 7 8 8 8 10 10 10 11 11 11 11 11 12 12 14 14 15 16 16 13 14 14 12 14 15 15 16 15 14 14 13 13 15 14 12 11 11 11 11 12 14 17 18 20 21 24 26 27 27 26 27 27 28 28 27 27 27 27 26 26 25 24 24 25 24 23 25 25
5 5 6 5 5 6 6 7 8 9 10 10 12 11 11 10 11 11 11 12 14 14 15 15 14 15 12 12 15 14 14 15 14 15 16 15 12 12 12 14 12 11 13 15 19 16 14 13 13 17 21 23 26 26 26 27 29 29 29 29 28 28 28 26 27 27 25 24 24 25 25 23 24 25
5 6 6 4 5 5 7 7 8 10 10 10 10 10 10 10 12 11 12 12 12 14 14 14 15 13 13 13 12 13 14 14 12 11 12 16 16 15 13 11 13 14 14 14 13 13 13 13 14 18 21 23 24 27 27 28 28 27 27 29 29 29 29 28 26 27 26 25 24 24 24 23 24 24
5 5 5 4 5 10 11 11 13 12 12 9 10 10 10 11 11 10 10 11 12 13 14 14 13 15 15 14 15 14 13 14 16 15 14 16 16 15 16 14 11 11 15 15 14 11 10 11 9 9 10 13 19 22 27 23 29 28 29 29 29 29 29 28 28 27 26 26 24 24 24 24 24 25
4 4 4 6 14 14 10 12 11 13 13 15 12 11 11 11 9 8 11 12 13 14 15 14 14 15 14 15 15 15 15 16 16 17 17 17 16 16 18 17 11 8 12 13 13 13 11 10 12 7 10 12 15 12 15 15 19 23 25 27 28 29 29 28 27 26 26 26 26 25 25 25 24 23
3 5 4 3 7 9 7 7 11 12 14 13 15 18 15 11 10 11 11 9 10 13 14 13 13 13 15 15 15 15 16 15 16 15 15 17 17 16 16 17 15 4 9 12 14 16 12 10 12 12 10 11 10 13 14 20 22 26 27 27 28 29 28 28 28 28 27 27 26 25 25 25 25 25
3 3 3 4 4 4 6 6 7 11 13 14 15 16 14 12 12 10 10 11 9 11 14 15 14 14 14 15 15 14 14 14 15 14 15 16 15 17 15 14 16 11 10 12 14 17 16 10 11 13 13 11 11 13 17 22 23 25 27 28 28 28 29 29 28 28 27 27 27 26 25 25 25 25
3 4 3 3 4 4 10 8 8 9 10 13 15 15 13 12 14 13 12 9 9 10 12 14 14 14 15 16 15 18 18 16 17 15 14 13 15 15 16 15 16 16 10 12 14 16 18 11 12 13 15 12 10 12 17 23 23 23 26 28 28 28 28 29 29 28 28 26 27 26 25 25 24 24
2 4 2 3 3 4 4 6 8 9 9 10 10 10 10 10 11 12 12 12 12 10 8 9 12 14 13 15 16 17 17 17 16 15 13 14 16 17 17 17 18 18 11 13 13 16 18 10 10 13 14 11 10 11 15 22 24 25 24 24 26 28 28 28 27 27 27 28 27 27 26 25 25 24
3 1 4 3 3 3 4 7 12 11 9 10 9 9 11 11 10 10 9 9 9 8 7 9 10 12 13 14 16 17 14 13 15 15 18 17 17 17 18 17 16 16 13 13 12 16 16 9 10 13 12 10 9 9 13 20 22 24 26 27 27 28 28 28 29 29 28 27 27 26 24 24 24 24
3 3 4 3 3 3 5 12 16 15 9 9 10 11 11 11 10 10 10 12 12 10 9 9 10 12 15 18 18 18 17 16 15 14 14 13 13 14 12 14 12 12 9 10 11 12 14 10 9 14 11 9 9 8 8 16 23 23 25 26 29 29 28 29 27 28 30 30 28 26 26 26 24 24
2 3 4 3 2 5 9 14 15 17 14 9 11 11 11 11 11 12 11 12 13 14 14 14 15 18 20 21 23 24 25 19 17 14 13 12 10 12 12 13 12 12 8 7 9 10 14 11 9 12 11 9 9 8 9 9 19 24 25 26 28 28 29 29 30 29 28 27 28 29 28 26 25 24
2 3 7 4 7 11 11 14 14 17 13 10 11 11 12 12 12 13 12 10 10 12 12 15 17 19 20 22 23 23 23 22 18 13 14 13 12 12 12 13 12 12 10 9 8 10 13 11 10 11 11 7 7 9 8 9 12 21 23 26 26 28 30 32 33 31 30 29 27 26 26 24 24 18
6 2 3 6 14 13 14 17 16 17 15 11 10 11 11 11 12 13 15 14 13 10 12 13 15 15 18 17 16 17 22 21 19 13 14 12 12 14 11 11 12 12 10 7 8 12 12 10 11 10 8 6 5 7 8 9 8 11 12 15 19 25 26 25 27 30 32 31 30 29 29 27 24 14
6 6 8 7 11 16 15 17 19 17 18 13 10 9 9 10 13 13 13 14 12 11 13 14 14 16 16 16 15 15 15 15 15 13 12 11 11 12 12 11 10 12 11 6 7 10 11 9 11 11 11 8 3 3 7 7 9 9 11 11 12 19 24 25 22 28 30 31 30 28 28 28 24 15
6 6 6 7 11 15 16 18 20 19 18 17 9 8 7 9 14 16 12 12 12 11 13 14 14 14 15 15 15 14 14 12 12 12 12 11 10 11 13 12 11 11 13 8 9 8 10 8 11 11 11 10 3 3 4 8 7 8 11 12 12 11 12 13 13 17 24 29 30 29 28 28 28 20
5 5 5 5 10 14 17 19 19 19 18 19 8 8 11 16 18 16 11 7 9 10 12 13 14 15 15 16 16 16 14 12 13 13 12 12 12 10 11 12 14 13 11 6 10 9 10 12 10 10 11 9 3 3 3 3 4 8 8 10 11 11 15 14 12 12 14 16 18 21 24 27 26 26
5 5 6 9 15 18 20 20 19 17 19 14 8 12 14 14 18 14 8 10 9 11 11 13 15 16 16 16 17 15 14 13 14 13 13 13 13 12 12 12 11 13 12 11 11 11 11 12 9 9 11 11 6 2 4 3 2 3 6 8 8 9 12 13 15 13 13 14 14 25 27 30 27 25
5 6 8 11 17 19 20 20 18 16 13 11 15 13 13 15 14 9 10 10 10 10 12 13 15 16 16 15 16 16 15 15 15 14 13 13 13 12 11 12 12 9 10 9 8 8 10 11 10 10 9 11 7 6 4 0 2 7 8 6 7 9 10 12 12 12 12 12 12 14 13 15 18 18
6 10 14 17 18 19 21 17 14 10 11 15 16 13 13 15 9 8 10 10 10 11 13 14 14 15 16 15 15 16 16 14 13 13 13 12 11 11 10 9 7 8 8 8 7 8 8 10 10 6 6 10 8 5 6 4 4 5 7 8 6 7 9 11 11 12 12 13 14 15 15 14 13 11
14 17 20 21 19 17 12 5 7 6 10 15 15 15 16 11 9 9 11 10 10 11 13 14 14 14 15 15 16 15 14 12 12 13 14 13 13 13 13 12 11 10 9 10 8 9 9 7 8 6 7 7 4 1 3 5 2 4 7 8 4 4 5 9 9 10 13 14 14 14 13 14 14 14
10 14 15 15 19 14 11 10 10 8 10 10 10 7 10 11 10 10 10 10 11 10 11 13 13 14 13 13 14 15 15 13 12 13 14 12 12 13 12 10 10 12 12 11 9 9 11 10 9 6 3 0 1 1 3 3 5 5 5 6 10 9 8 8 8 9 10 12 12 11 12 12 11 12
10 10 12 14 7 6 4 6 6 7 6 8 8 8 8 10 10 12 13 13 10 10 11 11 12 13 14 15 15 15 14 14 13 14 13 13 12 12 11 11 13 12 12 13 13 13 9 10 11 11 13 11 8 7 3 3 4 6 5 5 4 4 9 12 11 9 9 12 12 12 12 11 11 10
10 9 9 9 7 5 5 6 6 7 8 7 8 8 9 9 9 9 9 11 11 12 13 13 13 14 14 13 14 14 15 15 14 15 13 13 10 11 10 10 10 11 11 13 13 13 10 6 9 13 13 14 14 14 9 6 5 2 6 6 5 6 6 6 8 11 10 11 13 12 10 8 11 12
7 8 7 7 5 6 5 6 5 7 7 7 8 7 10 10 9 9 10 10 10 12 13 12 12 14 13 13 13 14 15 14 14 15 15 13 12 12 13 13 12 10 10 11 12 13 12 12 8 4 7 11 16 18 15 11 9 5 5 3 5 6 6 7 7 11 14 12 13 13 12 10 6 7
7 8 7 5 5 5 5 5 5 6 6 6 6 7 8 9 9 9 11 11 10 12 12 12 11 12 12 11 11 13 15 14 14 14 14 13 13 13 13 13 12 13 14 14 15 14 13 12 10 8 8 8 10 11 20 18 10 8 6 7 5 6 6 7 9 7 6 11 13 15 12 9 9 7
8 7 5 5 4 5 5 5 6 6 6 6 7 6 8 9 7 8 10 10 11 11 12 12 12 13 12 11 11 11 13 14 13 14 14 14 14 14 13 14 14 14 14 14 14 14 13 14 11 10 11 10 11 13 14 18 22 15 6 5 6 8 9 9 9 8 8 6 8 16 15 14 10 8
5 5 5 5 5 5 5 6 6 7 7 7 7 7 8 9 9 10 11 10 11 11 12 11 11 12 12 11 11 9 12 14 14 13 14 14 14 13 14 14 15 14 15 15 13 14 13 15 14 11 11 13 13 10 10 9 23 29 11 7 8 7 11 11 13 12 10 10 9 6 15 15 12 10
4 4 5 4 5 5 5 5 6 5 7 6 6 7 8 8 9 11 11 10 11 11 11 11 12 13 12 11 11 10 9 12 12 13 13 13 14 14 13 13 14 14 13 13 14 14 13 13 15 14 12 12 11 11 11 12 14 19 28 12 10 8 11 14 14 13 13 11 13 9 10 16 12 10
3 5 4 4 4 5 5 5 5 6 7 6 6 7 8 8 8 10 10 10 11 11 11 11 11 12 13 13 10 10 9 10 13 13 13 13 13 13 13 13 12 12 12 13 13 14 14 15 14 13 11 11 11 8 9 12 14 12 25 34 12 11 10 15 15 13 13 14 14 15 16 16 21 24
3 3 4 4 4 5 4 5 5 5 6 6 7 7 7 7 8 9 8 8 10 10 10 10 12 12 12 11 11 9 10 10 10 11 12 12 13 13 12 11 12 11 12 14 15 14 14 14 13 11 10 6 4 4 8 11 11 16 18 26 37 21 10 10 14 15 13 11 13 16 13 12 12 9
3 3 4 3 4 4 4 5 4 4 5 5 7 7 7 8 8 7 7 7 8 9 10 9 10 10 12 11 12 10 11 10 9 9 10 10 12 13 15 13 12 13 13 15 14 15 15 13 14 16 12 6 4 2 14 20 17 14 18 18 25 31 29 21 12 10 11 10 15 16 14 13 12 11
3 3 3 4 4 4 4 5 5 4 4 4 5 6 7 6 5 10 8 7 8 8 9 10 10 10 11 11 11 10 10 10 10 10 10 10 11 12 14 13 13 13 14 14 14 14 12 13 12 11 9 11 14 18 12 14 14 13 11 12 14 22 30 32 32 26 15 8 11 15 14 11 11 12
3 2 3 2 3 3 4 4 4 4 5 5 4 5 4 5 5 7 6 7 8 8 8 9 9 9 9 9 10 10 8 9 9 10 10 11 10 11 12 13 13 12 12 12 11 11 12 13 13 13 13 14 12 13 14 12 12 12 12 12 12 11 15 21 27 29 29 28 22 15 8 4 11 9
2 2 2 2 3 3 3 4 4 4 4 5 4 3 4 5 6 7 6 6 7 8 8 8 9 9 9 9 9 10 10 8 8 9 8 8 9 9 9 10 12 12 11 11 11 12 11 12 12 12 14 14 11 13 13 13 12 12 11 11 10 12 12 10 13 19 23 25 27 25 27 28 23 20
1 2 2 2 2 3 3 4 3 4 5 3 3 4 4 4 5 6 5 6 6 7 7 8 9 8 9 8 9 11 10 10 9 9 7 7 8 9 9 9 10 11 11 11 11 11 11 11 11 11 12 12 11 12 12 13 12 12 13 14 14 12 11 11 14 16 16 14 17 26 24 24 25 25
Wind_Direction
14 356 19 19 18 17 355 2 2 347 350 357 350 341 340 335 321 322 319 322 322 323 331 326 324 330 330 328 324 322 321 312 306 304 305 305 288 267 254 244 236 229 233 236 231 225 224 213 212 212 210 207 206 199 197 195 194 195 194 192 197 203 204 191 190 189 192 199 195 190 190 188 188 188
16 356 34 32 21 10 357 8 1 359 4 2 355 348 343 338 329 324 316 314 317 313 323 320 318 323 323 324 320 321 311 305 305 312 318 311 304 275 253 248 245 241 236 235 232 229 225 215 214 212 210 211 209 203 199 195 193 191 193 195 196 200 201 189 185 188 189 198 193 185 187 187 187 191
20 356 22 32 25 16 2 13 4 12 10 2 353 345 342 340 336 330 320 309 314 322 314 318 317 317 318 321 317 308 307 314 320 315 306 306 306 305 273 253 248 247 244 239 234 230 227 220 216 213 210 211 207 201 199 195 193 193 189 191 196 197 198 190 186 187 189 196 195 185 186 187 186 192
18 3 18 24 23 19 11 19 12 12 5 355 346 343 340 334 333 327 317 307 304 316 312 314 316 316 318 318 311 312 313 313 310 308 306 305 308 304 298 268 253 252 249 243 236 231 227 221 218 214 214 213 209 206 203 194 193 192 188 190 192 193 194 190 187 188 191 196 196 188 186 189 188 192
11 20 12 27 28 22 23 22 10 4 358 350 341 338 335 329 328 324 317 311 306 304 307 310 311 315 314 313 318 317 316 313 311 311 311 307 303 300 294 296 273 253 250 244 237 230 226 221 219 219 217 214 212 207 204 199 194 191 189 190 191 190 190 188 188 190 193 195 197 191 186 188 190 192
15 24 21 31 30 24 15 20 7 1 356 344 339 337 333 326 321 320 315 310 309 308 316 313 312 308 316 313 320 316 315 314 316 313 312 308 305 307 308 304 298 268 257 248 237 230 228 226 221 218 214 215 213 210 201 200 195 192 190 190 190 189 187 188 186 190 195 195 196 192 185 187 189 191
20 26 24 41 34 18 17 14 360 356 348 342 338 334 329 324 321 320 319 317 312 313 312 316 314 319 319 315 316 313 312 313 313 315 314 314 313 309 305 297 295 310 295 268 250 241 234 231 225 218 215 215 215 210 203 200 196 192 190 189 189 189 189 188 188 189 194 194 194 192 185 185 188 189
25 25 25 44 29 23 14 7 354 351 345 340 335 328 326 322 324 324 323 321 314 313 311 316 317 317 315 313 312 313 311 314 315 315 314 310 304 300 296 311 323 314 309 293 259 242 236 233 229 216 213 216 215 211 205 200 199 194 191 188 189 189 189 188 188 188 192 194 192 192 187 185 188 189
31 21 31 42 27 17 9 358 350 345 346 339 332 328 328 329 330 328 326 321 317 313 311 312 314 313 309 311 312 314 316 316 315 314 309 308 309 313 323 324 314 311 307 305 278 255 240 233 229 215 213 217 216 217 211 201 198 196 190 188 188 190 191 189 188 187 190 194 191 191 189 188 189 191
32 38 22 35 31 3 8 353 350 358 347 336 331 332 334 335 332 328 324 322 319 315 312 314 313 317 318 317 315 317 316 316 314 312 310 308 313 318 314 309 307 308 316 319 312 281 258 239 227 219 213 215 215 215 210 202 201 197 191 187 187 188 190 190 188 187 188 192 191 190 190 189 189 191
46 39 35 32 22 6 7 3 13 356 345 341 338 338 338 335 327 323 323 319 319 319 316 315 315 314 315 315 314 316 313 310 310 311 312 310 312 306 307 308 309 315 317 317 311 297 273 247 229 224 222 216 213 213 214 204 201 198 191 186 186 188 190 189 189 187 188 190 191 190 189 188 189 190
46 33 30 13 15 25 25 38 11 1 349 342 338 338 328 324 320 320 323 322 324 324 321 318 316 315 314 313 307 308 312 312 308 307 310 308 310 309 306 306 314 316 316 308 308 305 288 268 240 228 224 219 213 211 211 207 202 198 194 186 185 186 189 190 191 187 186 188 191 190 186 186 188 190
50 28 23 343 34 29 52 42 23 357 345 341 336 328 319 316 315 314 322 327 326 324 320 316 315 315 315 316 317 318 319 317 316 316 311 304 304 306 307 303 305 306 307 304 296 291 307 298 261 229 221 224 218 213 210 209 204 198 193 189 185 186 188 189 189 190 187 187 189 189 185 185 188 190
55 40 24 346 29 33 32 34 10 349 342 344 338 317 315 316 312 307 326 328 327 324 320 318 317 315 314 317 319 317 315 312 312 311 311 307 308 306 301 296 293 302 295 293 304 311 310 317 306 268 230 227 212 213 210 211 202 197 194 189 188 187 188 189 189 187 188 188 188 189 186 184 186 188
33 43 10 346 30 30 16 21 4 348 343 340 330 317 307 301 319 332 327 315 319 323 322 319 316 313 312 315 318 315 312 312 310 310 308 302 302 300 300 300 303 260 304 312 307 299 304 320 308 299 264 237 213 210 208 206 201 196 193 192 189 188 190 188 187 189 188 187 187 188 188 184 185 187
42 51 15 358 49 14 358 11 355 347 338 336 327 315 312 321 330 329 326 325 324 330 327 321 321 317 314 314 314 311 312 310 308 302 300 297 295 293 290 288 289 302 317 305 304 296 295 301 294 295 284 254 226 211 206 202 203 197 193 193 191 191 190 189 189 188 188 188 185 186 187 186 186 186
15 61 21 10 13 17 353 8 346 340 336 331 321 311 321 328 333 330 322 321 330 327 322 323 317 318 315 311 310 310 306 305 300 301 296 295 291 286 284 283 287 289 307 301 289 288 288 296 290 285 279 272 237 220 208 203 199 201 198 193 190 191 191 190 189 187 187 186 186 184 185 185 184 184
22 73 25 23 27 1 8 353 345 337 336 328 322 322 326 324 324 324 327 329 323 319 308 304 308 303 300 301 300 298 298 301 299 298 293 291 288 285 279 282 281 283 287 277 283 281 280 282 278 272 276 270 243 221 208 203 198 196 197 198 195 192 191 190 189 187 186 185 186 183 181 182 182 182
83 61 63 53 34 0 2 353 345 337 333 325 317 318 321 319 323 322 323 324 323 316 305 300 282 292 300 299 301 301 292 283 286 287 288 286 282 281 280 277 267 270 259 252 251 266 278 278 269 268 269 268 240 220 208 201 201 199 196 194 196 194 193 192 186 186 186 185 184 181 178 180 181 181
69 50 79 68 3 11 349 354 341 329 331 323 321 319 315 313 314 319 315 307 308 300 291 293 298 303 302 300 301 300 298 296 290 285 284 283 278 275 273 274 275 265 258 237 242 257 270 268 267 274 267 252 241 216 213 197 199 203 202 198 196 195 193 190 188 186 185 183 180 180 180 178 179 180
83 62 78 46 33 7 8 347 334 326 333 324 320 316 314 310 310 317 319 315 316 310 289 281 294 304 305 306 306 305 300 296 296 295 292 285 285 281 281 282 279 276 274 255 238 255 267 268 263 270 263 240 233 221 211 197 198 200 204 203 201 197 193 191 187 188 187 182 181 179 179 176 175 176
64 100 83 61 32 17 357 333 327 323 326 323 316 314 315 314 315 319 320 319 319 298 307 322 322 318 316 313 310 307 306 304 301 296 294 291 291 285 282 284 283 285 277 268 264 266 262 274 264 265 265 240 226 221 209 195 197 200 201 204 204 201 198 192 188 184 184 181 179 178 172 173 171 170
331 94 173 40 29 9 337 327 323 321 322 318 312 313 311 311 319 322 324 322 320 318 336 331 328 322 318 316 313 310 308 304 301 298 294 291 289 291 284 282 287 286 272 256 236 244 257 258 258 255 255 235 224 207 203 194 188 191 199 203 205 205 201 201 194 184 181 179 178 176 173 171 168 168
335 353 344 349 17 350 328 322 320 319 315 311 308 308 303 314 323 323 321 317 310 326 338 329 326 320 317 317 315 314 313 308 308 306 298 291 287 287 287 282 278 277 278 274 299 294 290 285 289 285 263 245 245 202 191 197 188 188 192 194 200 205 203 196 196 191 183 177 175 176 172 168 169 166
330 350 344 341 331 319 323 318 316 313 308 304 303 295 292 311 309 313 318 310 312 340 334 329 324 322 321 320 320 319 317 309 311 311 305 297 288 286 290 287 278 276 271 274 271 266 275 285 284 291 280 253 205 178 197 192 189 187 188 188 195 191 186 197 194 192 185 178 175 172 170 169 171 168
336 333 311 313 309 315 316 314 310 306 302 302 303 281 291 303 313 319 303 305 337 342 336 328 326 324 325 324 324 323 320 315 316 316 312 307 300 287 278 281 284 281 276 273 250 252 263 268 253 269 278 276 255 172 133 193 188 192 183 190 189 179 181 183 184 191 187 175 175 172 168 170 174 170
323 312 317 319 317 316 310 308 304 301 300 300 306 302 305 308 317 314 327 332 344 342 336 332 328 326 326 327 325 321 319 321 321 320 316 312 308 300 297 289 276 267 270 269 254 251 245 251 251 246 261 272 253 183 142 157 190 150 181 187 185 179 182 177 179 180 182 176 175 171 167 169 176 174
318 319 319 311 308 308 305 303 298 294 303 321 317 312 306 323 321 324 335 340 343 342 337 333 329 326 325 326 325 325 324 324 324 319 316 316 313 311 311 308 305 306 301 290 286 270 262 257 251 240 247 268 242 183 185 84 103 167 180 176 178 177 174 179 177 169 172 166 153 159 165 175 176 171
319 321 311 306 307 308 303 295 291 307 323 326 327 328 338 338 326 337 345 340 346 344 343 335 328 324 325 324 320 322 323 324 320 324 324 322 322 321 317 310 310 318 318 316 323 318 279 255 255 254 244 255 227 197 151 171 162 171 160 148 169 175 170 175 169 163 163 160 160 160 170 170 160 155
337 332 325 316 310 303 294 329 341 330 336 333 335 347 345 331 338 350 345 347 347 347 340 334 329 324 322 327 325 323 327 333 335 335 332 331 339 344 343 341 344 340 338 337 329 347 344 301 243 226 244 247 261 176 146 131 122 150 154 160 113 75 156 164 162 163 160 163 161 163 162 164 160 153
331 323 315 309 297 284 310 348 335 342 347 340 334 344 352 339 344 349 348 350 345 344 339 331 329 325 322 319 327 341 342 340 341 343 336 336 339 340 342 340 348 350 347 345 342 357 15 4 10 3 36 324 86 72 143 116 115 130 140 142 151 169 168 157 155 156 165 152 146 148 153 157 154 162
318 310 309 302 305 338 337 357 343 350 340 339 333 344 348 340 338 348 347 349 344 342 335 328 325 327 333 339 339 342 347 345 347 349 343 341 338 345 341 357 5 352 350 353 356 3 13 23 34 44 54 44 36 347 19 88 129 145 128 125 98 86 144 162 154 150 149 142 140 150 156 153 146 149
314 311 313 304 318 331 346 356 350 345 340 335 338 337 348 342 341 347 353 351 349 343 336 334 333 332 336 338 341 345 352 353 353 352 350 349 341 344 359 10 5 359 350 358 358 357 353 17 59 56 56 53 47 39 21 36 29 84 138 128 109 106 135 132 144 138 134 139 142 142 133 139 144 144
303 303 308 293 325 329 355 350 346 341 336 338 337 339 345 343 344 350 351 352 348 341 334 333 332 335 336 341 349 353 355 351 355 357 358 353 350 358 5 7 6 355 359 7 7 2 351 360 7 37 56 66 64 52 39 30 21 32 57 65 95 118 113 115 123 144 145 147 135 122 123 123 111 124
313 309 292 317 333 334 349 348 347 339 336 339 338 342 346 341 345 351 353 351 349 342 336 333 333 335 337 343 354 358 357 354 354 357 0 0 2 5 4 8 6 9 11 13 12 5 4 3 2 12 27 26 46 49 43 35 18 8 56 57 66 80 95 107 121 116 122 135 127 123 117 104 111 110
296 291 306 332 329 339 349 343 350 340 339 344 347 348 344 343 346 357 352 347 350 341 335 334 337 341 338 344 355 2 360 358 359 360 2 5 5 5 7 12 11 12 15 20 15 10 13 15 9 23 43 35 45 35 14 7 27 17 29 73 62 86 84 82 75 79 87 72 116 128 121 121 112 113
284 291 321 330 341 345 352 350 353 342 343 350 347 356 348 343 348 354 349 345 350 341 335 333 338 341 339 344 353 5 3 1 4 4 8 7 8 9 11 13 15 14 20 19 17 17 17 23 22 22 43 52 46 41 25 344 19 22 3 61 60 63 89 85 79 68 50 73 38 64 116 112 105 103
263 310 323 337 344 346 346 355 349 345 344 351 351 354 350 347 348 350 345 352 352 345 339 340 340 344 341 346 353 2 5 3 3 9 11 10 12 14 13 14 15 16 17 19 20 21 20 25 29 23 39 51 52 34 29 18 29 16 15 28 79 69 84 87 79 84 75 60 74 56 72 91 91 84
357 332 325 346 344 345 350 354 352 347 345 351 355 355 351 349 350 351 345 349 351 346 341 342 345 344 342 346 348 356 5 5 7 10 11 13 13 13 13 14 18 18 21 25 23 24 22 26 22 22 24 33 42 46 54 65 34 29 30 28 43 72 58 95 95 87 94 94 89 83 69 75 81 83
340 329 330 347 347 346 351 350 350 356 346 353 356 354 352 350 349 350 343 348 350 344 341 340 340 343 344 342 348 353 4 6 6 9 11 14 15 16 16 15 21 19 26 29 30 26 27 25 18 9 3 4 27 24 83 79 67 50 45 36 38 48 44 77 91 105 96 97 100 89 91 89 93 89
342 320 347 346 350 347 351 350 345 358 346 357 359 347 352 348 348 348 340 348 350 343 342 340 343 345 346 342 350 352 2 2 6 7 14 15 19 21 18 17 27 24 30 32 30 31 29 24 16 17 21 3 295 228 53 51 45 45 47 42 38 47 51 51 54 65 85 96 98 100 100 100 101 97
322 324 338 357 355 348 357 347 339 354 345 2 358 345 348 342 344 343 340 350 350 344 341 343 343 346 347 345 347 349 357 1 4 6 11 18 20 22 22 24 27 25 31 34 32 34 28 25 21 25 30 37 44 58 55 59 56 52 52 49 50 43 48 53 55 54 53 60 98 106 103 100 100 104
309 333 332 346 357 344 1 344 336 350 338 357 354 345 345 339 345 344 345 351 350 346 344 343 342 344 346 346 348 346 350 358 2 5 7 16 21 23 26 27 28 29 33 36 36 34 33 30 26 28 34 42 38 53 55 54 58 59 56 54 49 55 54 52 56 58 58 59 58 62 54 113 139 126
301 325 343 5 356 348 2 343 335 346 335 348 342 342 349 348 348 340 345 350 349 343 342 341 341 344 346 347 350 349 350 353 359 2 9 13 19 25 28 30 31 33 32 36 37 34 33 34 33 32 41 40 32 47 50 53 55 51 58 57 51 53 55 53 56 57 56 55 59 61 65 67 65 73
342 335 347 11 1 344 4 326 335 342 323 337 340 346 351 5 349 341 344 349 346 341 341 341 340 343 346 347 355 354 347 346 357 1 4 13 20 22 28 30 33 34 35 32 36 38 35 39 36 37 46 44 40 49 50 54 56 60 56 57 57 54 49 53 64 64 60 52 47 68 72 76 82 86